User: anonymous   Login
Location: Hartman Creek State Park
(44.3257°N, 89.2134°W)
Time: 12:41:30
(UTC-05:00)
Language:

Cosmos 2263 Rocket - Orbit

View from above orbital plane
View from above orbital plane
View from above satellite
View from above satellite

Ground track
Ground track

The orbit data is extracted from the following two-line orbital elements,

1 22803U 93059B   15109.14943225 -.00000178  00000-0 -64913-4 0  9992
2 22803 070.9880 114.1548 0016272 156.2082 203.9798 14.16708059116383
Epoch (UTC): 19 April 2015 03:35:10
Eccentricity: 0.0016272
inclination: 70.9880°
perigee height: 825 km
apogee height: 848 km
right ascension of ascending node: 114.1548°
argument of perigee: 156.2082°
revolutions per day: 14.16708059
mean anomaly at epoch: 203.9798°
orbit number at epoch: 11638

The dashed part of the orbit path shows where the satellite is in the earth's shadow,  

DLR